アトラス彗星

C/2017 D3 ( ATLAS )

English version
Home page
Updated on February 13, 2018

---------------------------------------------------------------------

・ プロフィール

発見日 2017年2月23日
発見光度 18.0等
発見者 Asteroid Terrestrial-impact Last Alert System (ATLAS) Team

・ 写真集

・ 軌道要素

Epoch 2017 May 7.0 TT = JDT 2457880.5
T 2017 Apr. 26.86932 TT                                 MPCW
q   4.9713473            (2000.0)            P               Q
z  -0.0004220      Peri.  340.77243     -0.91588970     -0.39040410
 +/-0.0000018      Node   186.60246     -0.16806205     +0.16153041
e   1.0020980      Incl.  125.64442     -0.36455618     +0.90636227
From 295 observations 2017 Feb. 10-2018 Jan. 27, mean residual 0".6.

・ 光度変化

        m1 = 7.0 + 5 logΔ + 10.0 log r

---------------------------------------------------------------------

軌道要素はM.P.E.C. 2018-B155に掲載されたものです。
光度グラフはComet for Windowsで作成したものです。

---------------------------------------------------------------------

Copyright(C) Seiichi Yoshida (comet@aerith.net). All rights reserved.